Weather History for Ames, IA

Change the Weather History Date:

Sunday, February 10, 2013

  Actual Average Record
Temperature  
Mean Temperature 39 °F 23 °F  
Max Temperature 47 °F 32 °F 64 °F (1999)
Min Temperature 31 °F 14 °F -20 °F (2014)
Degree Days  
Heating Degree Days 26 42  
Month to date heating degree days 387 431  
Since 1 July heating degree days 4289 4586  
Cooling Degree Days 0 0  
Month to date cooling degree days 0 0  
Year to date cooling degree days 0 0  
Moisture  
Dew Point 32 °F    
Average Humidity 88    
Maximum Humidity 100    
Minimum Humidity 76    
Precipitation  
Precipitation 0.16 in 0.03 in 0.33 in (1988)
Month to date precipitation 0.40 0.32  
Sea Level Pressure  
Sea Level Pressure 29.50 in    
Wind  
Wind Speed 20 mph (SSE)    
Max Wind Speed 38 mph    
Max Gust Speed 48 mph    
Visibility 5 miles    
Events Rain    
T = Trace of Precipitation, MM = Missing Value Source: NWS Daily Summary

Daily Weather History Graph

Daily Weather History Graph

Search for Another Location

Airport:

Trip Planner

Search our weather history database for the weather conditions in past years. The results will help you decide how hot, cold, wet, or windy it might be!

Date:

Astronomy

Feb. 10, 2013 Rise Set
Actual Time 7:16 AM CST 5:41 PM CST
Civil Twilight 6:47 AM CST 6:10 PM CST
Nautical Twilight 6:14 AM CST 6:43 PM CST
Astronomical Twilight 5:42 AM CST 7:15 PM CST
Moon 7:05 AM CST (2/10) 6:34 PM CST (2/10)
Length of Visible Light 11h 22m
Length of Day
10h 24m
New Moon, 0% of the Moon is Illuminated
Feb 10
New Moon
Feb 17
First Quarter
Feb 25
Full
Mar 4
Last Quarter
Mar 11
New

Hourly Weather History & Observations

Time (CST) Temp. Windchill Dew Point Humidity Pressure Visibility Wind Dir Wind Speed Gust Speed Precip Events Conditions
12:11 AM 32.0 °F 23.6 °F 30.2 °F 93% 29.83 in 2.5 mi ESE 10.4 mph - 0.03 in   Overcast
12:20 AM 32.0 °F 23.0 °F 30.2 °F 93% 29.83 in 3.0 mi ESE 11.5 mph - 0.04 in   Overcast
12:37 AM 32.0 °F 23.0 °F 32.0 °F 100% 29.82 in 3.0 mi ESE 11.5 mph - 0.04 in   Overcast
12:53 AM 32.0 °F 22.5 °F 32.0 °F 100% 29.84 in 4.0 mi ESE 12.7 mph - 0.05 in   Overcast
1:53 AM 33.1 °F 23.4 °F 33.1 °F 100% 29.82 in 5.0 mi SE 13.8 mph 21.9 mph N/A   Overcast
2:39 AM 33.8 °F 24.8 °F 33.8 °F 100% 29.78 in 4.0 mi SE 12.7 mph - N/A   Overcast
2:53 AM 33.1 °F 23.4 °F 33.1 °F 100% 29.79 in 4.0 mi SE 13.8 mph - 0.00 in Rain Light Rain
3:53 AM 33.1 °F 22.2 °F 33.1 °F 100% 29.72 in 3.0 mi SE 17.3 mph 23.0 mph 0.00 in   Overcast
4:53 AM 33.1 °F 22.6 °F 33.1 °F 100% 29.66 in 4.0 mi SE 16.1 mph 20.7 mph N/A   Overcast
5:11 AM 33.8 °F 23.2 °F 33.8 °F 100% 29.61 in 2.5 mi ESE 17.3 mph - N/A   Overcast
5:20 AM 33.8 °F 22.8 °F 33.8 °F 100% 29.60 in 3.0 mi ESE 18.4 mph 25.3 mph N/A   Overcast
5:53 AM 34.0 °F 23.8 °F 34.0 °F 100% 29.61 in 4.0 mi SE 16.1 mph 26.5 mph N/A   Overcast
6:16 AM 33.8 °F 23.5 °F 33.8 °F 100% 29.56 in 2.5 mi ESE 16.1 mph 24.2 mph 0.01 in Rain Light Rain
6:37 AM 33.8 °F 22.5 °F 33.8 °F 100% 29.53 in 3.0 mi SE 19.6 mph 26.5 mph 0.02 in   Overcast
6:53 AM 34.0 °F 23.4 °F 34.0 °F 100% 29.58 in 3.0 mi SE 17.3 mph 27.6 mph 0.02 in   Overcast
7:53 AM 34.0 °F 22.7 °F - N/A% 29.51 in 5.0 mi SE 19.6 mph 25.3 mph 0.06 in   Overcast
8:03 AM 35.6 °F 25.9 °F 35.6 °F 100% 29.47 in 5.0 mi SE 16.1 mph 24.2 mph 0.00 in   Overcast
8:53 AM 35.1 °F 25.5 °F - N/A% 29.47 in 3.0 mi SE 15.0 mph 21.9 mph 0.00 in   Overcast
8:58 AM 35.6 °F 25.9 °F - N/A% 29.46 in 1.8 mi SE 16.1 mph 21.9 mph 0.00 in   Overcast
9:35 AM 35.6 °F 26.2 °F - N/A% 29.44 in 1.0 mi SE 15.0 mph - 0.02 in   Overcast
9:53 AM 36.0 °F 25.6 °F - N/A% 29.46 in 1.5 mi SSE 18.4 mph 24.2 mph 0.02 in   Overcast
10:16 AM 35.6 °F 27.1 °F - N/A% 29.41 in 2.5 mi SE 12.7 mph 20.7 mph 0.00 in   Overcast
10:25 AM 37.4 °F 29.3 °F - N/A% 29.42 in 3.0 mi SSE 12.7 mph 19.6 mph 0.00 in   Overcast
10:53 AM 37.9 °F 30.0 °F - N/A% 29.41 in 4.0 mi SSE 12.7 mph - 0.00 in   Haze
11:42 AM 37.4 °F 30.8 °F - N/A% 29.36 in 2.5 mi SSE 9.2 mph - N/A   Overcast
11:53 AM 39.0 °F 33.4 °F - N/A% 29.37 in 3.0 mi SSE 8.1 mph - N/A   Overcast
12:50 PM 42.8 °F 36.2 °F - N/A% 29.29 in 5.0 mi SE 12.7 mph - N/A   Haze
12:53 PM 43.0 °F 36.0 °F - N/A% 29.30 in 6.0 mi SE 13.8 mph - N/A   Haze
1:22 PM 42.8 °F 37.5 °F - N/A% 29.27 in 6.0 mi ESE 9.2 mph - N/A   Haze
1:42 PM 42.8 °F 38.0 °F - N/A% 29.26 in 4.0 mi SE 8.1 mph - N/A   Haze
1:53 PM 42.1 °F 36.1 °F - N/A% 29.27 in 4.0 mi SE 10.4 mph - N/A   Haze
2:37 PM 44.6 °F 35.5 °F 39.2 °F 81% 29.28 in 10.0 mi SW 25.3 mph 40.3 mph 0.01 in   Overcast
2:53 PM 45.0 °F 35.8 °F 37.0 °F 74% 29.29 in 10.0 mi SW 26.5 mph 33.4 mph 0.01 in   Overcast
3:53 PM 39.9 °F 27.6 °F 33.1 °F 77% 29.31 in 10.0 mi SW 34.5 mph 41.4 mph N/A   Overcast
4:44 PM 37.4 °F 27.8 °F 32.0 °F 81% 29.31 in 10.0 mi SSW 17.3 mph - N/A   Overcast
4:53 PM 37.9 °F 27.1 °F 32.0 °F 79% 29.32 in 10.0 mi SSW 23.0 mph 28.8 mph N/A   Overcast
5:53 PM 37.0 °F 25.9 °F 34.0 °F 89% 29.34 in 10.0 mi SW 23.0 mph 33.4 mph 0.00 in   Overcast
6:53 PM 37.0 °F 25.6 °F 35.1 °F 93% 29.37 in 9.0 mi WSW 24.2 mph 31.1 mph N/A   Overcast
7:53 PM 34.0 °F 21.0 °F 30.9 °F 89% 29.41 in 9.0 mi WSW 26.5 mph 35.7 mph N/A   Overcast
8:53 PM 33.1 °F 20.1 °F 28.9 °F 85% 29.44 in 8.0 mi West 25.3 mph 39.1 mph 0.00 in   Overcast
9:53 PM 32.0 °F 18.4 °F 26.1 °F 79% 29.48 in 10.0 mi West 26.5 mph 43.7 mph N/A   Overcast
10:53 PM 32.0 °F 18.4 °F 26.1 °F 79% 29.53 in 10.0 mi West 26.5 mph 41.4 mph N/A   Overcast
11:53 PM 30.9 °F 16.9 °F 25.0 °F 79% 29.57 in 8.0 mi West 26.5 mph 39.1 mph 0.00 in   Overcast